Temperature
18 18 18 18 18 18 17 17 17 17 17 17 17 17 16 16 16 16 16 16 16 16 16 16 16 16 16 16 16 16 16 16 16 16 15 15 15 15 15 14 14 14 14
18 18 17 17 17 17 17 17 17 17 17 17 17 16 16 16 16 16 16 16 15 15 15 15 15 15 15 16 16 16 16 15 15 15 15 15 14 14 14 14 13 13 13
18 17 17 17 17 17 17 17 17 17 17 17 16 16 16 16 16 16 16 15 15 15 15 15 15 15 15 15 15 15 15 15 15 15 14 14 14 13 13 13 13 12 12
17 17 17 17 17 17 17 17 17 17 17 16 16 16 16 16 15 15 15 15 15 15 15 15 15 15 15 15 15 15 14 14 14 14 14 13 13 13 13 12 12 12 11
17 17 17 17 17 17 17 17 17 16 16 16 16 16 16 15 15 15 15 15 15 15 14 14 14 14 14 14 14 14 14 14 13 13 13 13 12 12 12 12 11 11 11
17 17 17 17 17 17 17 16 16 16 16 16 15 15 15 15 15 15 15 15 14 14 14 14 14 14 14 14 14 13 13 13 13 13 12 12 12 12 11 11 11 11 10
17 17 17 16 16 16 16 16 16 16 15 15 15 15 15 15 15 15 14 14 14 14 14 14 13 13 13 13 13 13 13 12 12 12 12 12 11 11 11 11 10 10 10
17 17 16 16 16 16 16 15 15 15 15 15 15 15 14 14 14 14 14 14 14 13 13 13 13 13 13 12 12 12 12 12 11 11 11 11 11 11 10 10 10 9 9
16 16 16 16 16 16 15 15 15 15 15 15 14 14 14 14 14 14 14 13 13 13 13 12 12 12 12 12 12 11 11 11 11 11 10 10 10 10 10 9 9 9 8
16 16 16 16 15 15 15 15 15 15 14 14 14 14 14 13 13 13 13 13 13 12 12 12 12 12 12 11 11 11 11 10 10 10 10 9 9 9 9 8 8 9 8
16 16 16 15 15 15 15 15 14 14 14 14 13 13 13 13 13 13 13 12 12 12 12 11 11 11 11 11 10 10 10 9 9 9 9 8 8 8 8 7 7 7 7
15 15 15 15 15 14 14 14 14 13 13 13 13 12 12 12 12 12 12 12 12 11 11 11 10 10 10 10 10 9 9 9 9 8 8 8 7 7 7 6 6 6 6
15 15 15 15 14 14 13 13 13 13 12 12 12 12 12 12 12 11 11 11 11 11 10 10 10 10 9 9 9 9 8 8 8 8 8 7 7 6 6 6 6 6 5
15 15 14 14 14 13 13 13 12 12 12 12 12 11 11 11 11 11 11 11 10 10 10 9 9 9 9 8 8 8 7 7 7 7 7 6 6 6 6 6 6 6 6
14 14 14 13 13 13 12 12 12 12 12 12 11 11 11 11 11 11 10 10 10 9 9 9 8 8 8 7 7 7 7 7 7 6 6 6 6 6 5 5 5 5 6
13 13 13 12 12 12 12 11 11 11 11 11 11 11 11 10 10 10 10 10 9 9 9 9 8 8 8 8 7 7 6 6 6 6 6 6 6 6 5 5 5 5 5
13 13 12 12 12 11 11 11 10 10 10 10 10 10 10 10 10 9 9 9 9 8 8 8 8 8 7 7 7 7 6 6 5 5 5 5 5 5 5 5 5 5 5
12 12 12 11 11 11 10 10 10 10 9 9 9 9 9 9 9 9 8 8 8 8 8 8 7 7 7 6 6 6 6 5 5 5 5 5 5 5 5 5 5 5 5
12 11 11 11 11 10 10 10 9 9 9 9 8 8 8 8 8 8 8 8 8 8 7 7 7 6 6 6 5 5 5 5 5 5 5 4 5 5 5 5 5 4 5
11 11 10 10 10 10 9 9 9 9 8 8 8 8 8 7 7 7 7 7 7 7 7 6 6 6 5 5 5 5 5 4 4 4 4 4 4 5 4 4 5 5 5
10 10 10 10 9 9 9 9 8 8 8 8 8 7 7 7 7 7 7 7 6 6 6 6 5 5 5 5 5 4 4 4 4 4 4 4 4 4 4 4 4 5 5
10 9 9 9 9 8 8 8 8 8 8 8 7 7 7 7 7 7 6 6 6 6 5 5 5 5 5 5 5 4 4 4 4 4 4 4 4 4 4 4 4 4 4
9 8 8 8 8 8 8 8 8 8 7 7 7 7 7 7 6 6 6 6 6 5 5 5 5 5 5 4 4 4 4 4 4 4 4 4 4 4 4 4 4 4 4
8 8 8 8 8 8 7 7 7 7 7 7 7 7 6 6 6 6 6 6 5 5 5 5 5 5 4 4 4 4 4 4 4 4 4 4 4 4 4 4 4 4 4
8 8 7 7 7 7 7 7 7 7 7 7 6 6 6 6 6 6 6 5 5 5 5 5 5 5 4 4 4 4 4 4 4 4 3 3 3 3 4 4 4 4 4
8 8 7 7 7 7 7 7 7 7 7 6 6 6 6 6 6 6 6 6 5 5 5 5 5 5 4 4 4 4 4 4 4 4 4 3 3 3 3 4 4 4 4
Wind_Speed
7 7 6 6 6 6 6 6 6 6 6 7 7 7 8 8 8 7 7 6 6 6 6 7 7 6 5 6 5 5 5 5 5 4 2 3 3 4 5 6 7 7 8
5 6 5 5 5 5 5 5 5 5 5 6 6 6 7 7 7 7 7 7 7 6 6 6 6 5 6 6 5 5 5 4 5 5 3 3 3 3 4 4 5 6 7
6 5 5 5 4 4 4 4 4 4 4 5 5 5 6 5 5 6 6 7 7 6 5 5 6 6 6 6 5 5 4 4 4 4 4 3 2 3 4 4 4 4 5
5 5 4 4 4 3 3 3 3 3 4 4 4 4 4 5 5 5 5 4 4 4 4 4 4 5 5 5 5 4 4 3 4 4 4 4 3 3 4 4 3 3 3
5 4 4 3 3 3 3 3 2 2 2 2 2 2 2 3 3 3 4 3 3 3 2 2 2 1 1 2 3 3 4 4 4 4 4 4 4 4 4 3 4 4 3
6 5 5 4 4 3 3 3 3 3 2 2 2 2 2 1 1 2 3 3 3 3 3 2 2 2 4 6 6 6 4 3 4 3 3 4 3 3 3 3 4 3 2
6 6 5 5 4 4 3 3 3 3 4 4 3 3 2 3 4 4 3 3 3 2 2 2 2 3 5 6 8 9 8 8 5 3 4 4 4 3 4 4 4 3 3
6 6 5 5 5 4 4 4 4 4 4 4 4 4 4 4 5 5 6 5 4 4 3 3 4 4 4 6 8 8 8 7 6 5 5 4 4 4 4 5 6 6 5
6 6 5 5 5 5 5 4 4 4 4 4 4 4 4 4 5 5 6 5 5 5 5 5 5 6 6 8 9 10 9 8 13 16 15 14 13 11 7 6 6 5 5
6 6 5 5 6 5 5 5 4 4 4 4 4 4 4 3 5 5 4 5 6 5 5 6 7 7 7 6 9 10 10 9 9 11 12 11 12 11 9 5 4 4 4
6 6 6 5 5 5 5 5 5 4 4 4 4 4 4 3 5 5 3 4 5 6 5 5 6 10 9 7 7 8 9 9 9 9 9 8 8 7 7 8 6 4 3
7 6 6 5 5 5 5 5 4 5 5 4 4 4 4 4 5 6 5 4 3 6 6 6 7 10 10 9 8 9 9 7 7 7 7 7 7 7 7 8 9 9 8
7 6 5 5 5 4 4 5 4 4 3 3 3 3 3 4 5 7 7 6 6 6 7 10 10 10 11 10 10 9 7 6 7 7 7 6 6 6 6 6 7 8 8
6 5 5 5 5 4 3 2 3 2 3 3 3 3 3 4 4 5 6 7 9 9 10 12 12 9 8 10 9 7 5 6 5 6 6 6 6 5 5 4 4 3 4
6 5 5 5 5 4 3 2 2 2 1 1 3 3 4 4 3 4 4 6 6 8 9 8 8 7 7 7 7 6 6 6 5 5 5 5 5 5 4 4 3 2 3
6 5 5 4 5 5 5 5 10 7 8 8 6 3 4 5 7 8 7 8 8 7 7 8 7 6 6 7 6 6 6 5 5 5 4 4 4 4 4 3 2 2 2
6 5 5 5 5 5 5 5 5 6 9 10 9 8 7 8 9 10 10 10 8 7 6 7 6 6 6 5 5 5 5 5 4 4 4 4 4 3 3 3 2 1 2
5 5 5 4 4 5 5 5 5 5 5 5 6 8 9 9 9 9 9 9 6 4 5 6 6 6 5 5 5 5 5 5 4 4 4 3 3 3 3 2 1 1 1
5 4 4 4 4 5 5 5 5 6 6 6 6 6 7 9 9 7 6 5 6 6 5 5 5 5 5 5 5 4 4 4 4 3 3 3 2 2 2 2 2 1 2
5 6 5 5 5 5 5 5 6 6 6 6 6 6 7 6 6 6 4 4 5 5 5 5 5 5 5 5 4 4 4 4 4 3 3 3 2 2 2 2 1 1 1
5 6 6 5 5 5 5 6 6 6 5 5 5 5 4 6 6 6 5 5 5 5 5 5 5 5 5 4 4 5 5 4 4 3 3 3 3 2 2 2 1 2 1
5 5 5 5 5 5 5 6 6 6 6 6 6 6 4 4 5 5 5 5 5 5 5 5 5 5 4 5 5 4 4 4 4 4 3 3 2 2 2 2 2 2 2
6 6 6 6 6 6 5 5 5 5 6 6 6 6 6 5 5 5 5 5 5 5 5 5 5 5 5 6 6 5 4 4 4 4 4 3 3 3 3 2 3 3 3
7 7 7 6 6 6 5 6 5 6 6 6 6 6 6 5 5 6 5 5 5 5 5 5 5 6 6 5 5 5 5 4 5 5 4 3 3 3 3 3 4 4 3
7 7 7 6 6 5 5 5 5 6 5 5 5 5 5 5 6 6 5 5 6 5 5 5 6 6 7 6 6 5 5 4 3 4 5 5 5 4 4 4 4 4 4
7 7 6 6 5 5 5 5 5 5 5 5 5 5 5 5 5 5 5 5 6 5 6 6 6 7 7 7 7 7 7 7 6 6 6 6 5 5 5 5 6 6 6
Wind_Direction
185 189 196 201 202 206 215 223 226 224 223 224 229 232 231 230 229 227 229 228 230 234 236 234 237 247 245 241 234 236 240 238 236 234 205 140 139 149 133 134 133 128 117
176 181 189 193 195 201 210 215 218 220 222 223 222 228 234 231 228 224 225 225 226 230 233 234 238 237 236 243 237 236 238 238 228 220 206 180 164 152 140 143 137 132 123
167 174 181 190 191 198 206 209 209 210 217 221 219 221 225 229 228 225 224 228 226 229 229 229 236 235 231 232 229 233 232 228 218 210 194 167 165 148 136 134 121 117 123
161 168 176 186 186 190 191 193 198 200 206 211 218 222 221 222 227 224 222 221 216 222 228 230 235 232 225 222 217 222 226 222 200 190 184 176 165 164 160 158 149 141 124
152 154 160 162 158 155 154 162 166 170 179 184 193 198 206 214 221 211 201 192 190 198 210 219 217 190 163 182 197 197 200 200 194 187 183 179 176 169 180 184 165 143 112
145 140 135 135 132 131 133 133 133 132 131 137 145 145 146 175 107 159 188 175 172 175 186 194 184 156 123 107 93 83 89 154 178 181 179 172 173 181 175 173 159 156 152
140 134 129 128 127 123 124 124 123 115 107 102 103 103 100 85 90 107 136 153 143 141 150 160 158 133 134 132 112 100 84 75 83 136 158 167 163 168 172 164 155 155 119
142 140 139 135 128 123 118 113 109 106 105 101 96 96 95 82 93 111 121 118 106 98 100 118 125 115 122 128 123 111 96 81 81 96 110 104 109 125 147 141 132 120 113
149 148 145 142 136 131 125 118 114 109 106 108 104 99 98 88 90 109 127 123 113 101 91 90 106 115 115 130 127 117 106 92 76 79 82 85 84 84 94 117 125 126 119
154 150 146 146 142 137 131 127 121 117 116 112 105 101 102 98 89 102 133 131 124 119 106 98 88 101 111 121 129 126 118 111 108 100 93 92 90 86 77 78 110 126 125
147 143 138 138 139 139 133 133 133 132 125 120 115 107 101 97 101 99 111 139 135 129 122 114 102 104 104 98 110 117 123 125 118 111 104 97 91 85 78 68 52 48 78
143 141 140 142 143 140 139 139 141 143 140 139 130 119 113 108 100 99 90 91 105 122 122 117 110 109 104 99 102 108 121 128 116 110 103 98 93 87 78 73 67 63 63
141 140 139 138 138 141 145 149 151 155 156 153 148 140 129 120 112 108 105 95 91 105 103 101 111 119 117 103 104 115 127 119 112 107 102 96 92 91 96 98 94 90 87
141 140 140 141 138 128 128 143 152 155 157 159 158 154 146 142 139 138 133 126 123 114 112 115 116 109 106 107 118 114 100 95 103 106 107 105 108 108 104 101 106 112 107
145 146 145 140 133 125 107 72 111 94 83 164 167 163 161 156 131 108 141 143 139 132 133 130 128 128 123 119 115 109 109 112 110 111 112 113 112 106 101 97 92 97 87
147 146 146 143 139 136 124 92 57 63 61 53 43 73 95 101 119 120 111 108 117 140 142 133 135 136 132 129 126 119 114 111 110 109 109 112 115 115 110 101 88 79 77
146 145 147 147 146 142 137 134 122 89 75 66 64 74 95 113 122 125 123 122 131 148 140 132 133 132 130 126 123 119 117 114 112 117 118 122 120 118 114 110 103 94 77
144 140 145 146 146 145 145 143 138 134 123 102 82 86 101 109 116 123 133 133 131 146 133 131 132 132 129 124 121 119 119 122 124 125 128 129 128 131 130 133 120 63 58
139 137 133 132 136 138 140 139 135 132 130 128 125 112 109 115 117 125 148 144 137 138 132 128 126 125 123 121 119 123 128 130 129 136 137 141 151 155 148 152 138 139 279
124 119 128 133 133 131 133 133 133 134 135 136 139 138 141 143 134 137 148 142 135 131 128 126 121 120 122 125 129 135 139 141 148 158 153 161 161 162 165 189 198 212 255
126 128 133 131 131 133 133 132 133 134 137 139 136 127 138 148 141 142 147 139 132 129 129 130 132 135 137 142 142 148 153 152 157 163 164 172 175 179 197 210 225 253 273
127 132 133 127 126 128 129 133 135 135 137 133 127 129 144 146 138 141 143 140 139 138 142 148 150 148 149 152 155 161 166 165 170 177 182 183 188 201 218 230 243 260 272
128 128 125 123 124 125 129 131 133 134 134 136 138 141 149 148 146 146 147 145 145 147 150 155 155 154 154 158 164 174 182 179 182 190 196 199 206 216 227 234 249 263 273
132 132 130 129 131 137 136 135 136 136 137 139 144 149 153 155 155 151 153 154 156 156 157 162 163 160 162 170 176 181 181 184 193 194 207 219 225 233 235 240 251 261 268
134 133 135 137 139 139 140 141 143 146 147 152 156 160 161 161 160 160 161 161 163 165 168 172 171 172 179 187 189 181 155 164 206 215 209 224 229 236 244 249 256 264 271
135 138 139 140 142 145 148 151 152 153 157 161 165 168 171 171 170 170 173 174 175 175 181 185 185 186 190 198 192 176 167 178 200 231 238 230 232 237 245 253 258 262 268
Height
1533 1534 1536 1537 1538 1540 1541 1542 1543 1545 1546 1547 1548 1550 1551 1552 1553 1554 1555 1556 1557 1558 1559 1560 1561 1563 1564 1565 1566 1566 1568 1569 1569 1570 1571 1571 1572 1573 1573 1574 1575 1575 1575
1532 1533 1534 1536 1537 1538 1539 1540 1541 1541 1543 1544 1545 1546 1547 1548 1549 1550 1551 1552 1553 1554 1555 1556 1557 1558 1559 1560 1561 1562 1563 1564 1565 1566 1566 1567 1568 1569 1569 1570 1571 1572 1572
1531 1532 1533 1534 1535 1536 1537 1538 1538 1539 1540 1541 1542 1542 1543 1544 1545 1546 1547 1548 1548 1550 1550 1552 1552 1553 1554 1555 1556 1557 1559 1560 1561 1561 1562 1562 1564 1565 1565 1566 1568 1568 1569
1530 1531 1531 1532 1533 1534 1535 1536 1537 1537 1538 1538 1539 1540 1540 1541 1542 1542 1543 1543 1544 1545 1547 1548 1548 1549 1549 1550 1551 1553 1554 1555 1556 1557 1558 1559 1560 1561 1562 1563 1564 1565 1566
1529 1530 1530 1531 1532 1533 1534 1534 1535 1535 1536 1536 1537 1537 1538 1538 1538 1539 1540 1540 1541 1542 1543 1544 1544 1545 1546 1547 1548 1549 1550 1551 1552 1553 1554 1556 1557 1558 1559 1560 1561 1562 1563
1529 1529 1530 1530 1531 1532 1533 1533 1534 1534 1534 1535 1535 1535 1535 1536 1536 1537 1537 1538 1539 1539 1540 1540 1541 1542 1543 1544 1544 1546 1547 1548 1549 1551 1552 1553 1554 1555 1557 1558 1559 1560 1560
1528 1529 1529 1530 1531 1531 1532 1533 1533 1533 1533 1533 1534 1534 1534 1534 1534 1535 1535 1536 1536 1537 1537 1538 1538 1539 1540 1541 1542 1543 1544 1545 1547 1548 1549 1550 1551 1552 1554 1555 1556 1557 1557
1528 1529 1529 1530 1530 1531 1531 1532 1532 1532 1533 1533 1533 1533 1533 1533 1534 1534 1534 1535 1535 1535 1535 1536 1537 1538 1538 1539 1540 1541 1542 1543 1545 1545 1546 1547 1548 1549 1551 1552 1553 1553 1554
1527 1528 1529 1529 1530 1530 1531 1531 1531 1532 1532 1532 1532 1532 1533 1533 1533 1533 1534 1534 1534 1534 1534 1535 1536 1536 1537 1538 1539 1540 1541 1542 1544 1544 1545 1545 1546 1547 1548 1550 1551 1553 1554
1526 1527 1527 1528 1529 1530 1530 1530 1531 1531 1531 1532 1532 1532 1532 1532 1533 1533 1533 1533 1533 1534 1534 1535 1535 1535 1536 1537 1538 1539 1540 1542 1543 1544 1544 1545 1546 1547 1548 1549 1551 1553 1554
1524 1525 1526 1527 1528 1529 1529 1529 1530 1530 1531 1531 1531 1531 1531 1532 1532 1533 1533 1533 1534 1534 1534 1534 1535 1535 1536 1537 1538 1539 1540 1542 1543 1544 1545 1546 1547 1548 1549 1550 1551 1553 1554
1523 1524 1525 1526 1527 1528 1528 1528 1529 1529 1530 1530 1530 1530 1531 1531 1532 1532 1532 1533 1534 1534 1534 1535 1535 1536 1537 1538 1539 1540 1541 1543 1545 1546 1546 1548 1549 1550 1550 1551 1551 1552 1552
1521 1522 1524 1524 1525 1526 1527 1527 1528 1528 1529 1529 1530 1530 1530 1530 1531 1531 1532 1533 1533 1533 1534 1535 1535 1537 1538 1539 1540 1541 1543 1544 1546 1546 1548 1549 1550 1550 1551 1552 1553 1553 1553
1519 1521 1522 1523 1523 1524 1525 1526 1527 1527 1528 1528 1528 1529 1529 1529 1530 1531 1531 1532 1533 1533 1534 1535 1536 1537 1538 1539 1540 1542 1543 1545 1546 1547 1548 1550 1551 1552 1553 1554 1555 1555 1556
1518 1519 1520 1521 1521 1522 1523 1524 1525 1526 1526 1527 1527 1528 1528 1528 1529 1529 1530 1531 1532 1533 1534 1536 1537 1538 1539 1540 1541 1542 1544 1546 1547 1548 1550 1551 1552 1553 1554 1555 1555 1556 1557
1516 1517 1518 1519 1519 1520 1521 1522 1522 1523 1524 1525 1525 1526 1526 1527 1527 1528 1529 1530 1531 1532 1534 1535 1537 1538 1539 1540 1542 1543 1545 1546 1548 1549 1551 1552 1553 1554 1555 1556 1556 1557 1557
1514 1515 1516 1517 1518 1519 1520 1521 1521 1522 1523 1523 1524 1524 1525 1525 1526 1527 1528 1529 1530 1532 1534 1535 1536 1538 1539 1540 1542 1543 1545 1546 1548 1550 1551 1553 1554 1555 1556 1556 1557 1557 1558
1513 1514 1515 1516 1517 1517 1518 1519 1520 1521 1521 1522 1523 1523 1524 1525 1526 1527 1528 1529 1531 1532 1534 1535 1536 1537 1539 1541 1542 1543 1545 1547 1548 1550 1551 1553 1554 1555 1556 1557 1557 1557 1558
1512 1513 1513 1514 1515 1516 1517 1518 1519 1520 1521 1522 1522 1523 1524 1524 1525 1527 1528 1530 1531 1532 1533 1535 1536 1538 1539 1540 1542 1543 1545 1547 1549 1551 1552 1553 1554 1555 1556 1557 1557 1557 1557
1510 1511 1512 1513 1514 1515 1516 1517 1518 1519 1521 1522 1523 1523 1524 1525 1526 1527 1528 1530 1531 1532 1533 1535 1536 1537 1539 1540 1542 1544 1546 1547 1549 1551 1552 1554 1555 1556 1556 1557 1557 1557 1557
1509 1510 1511 1512 1513 1514 1515 1516 1518 1519 1520 1522 1523 1523 1524 1526 1527 1528 1529 1530 1532 1533 1534 1535 1536 1538 1539 1541 1543 1544 1546 1548 1550 1551 1552 1553 1555 1555 1556 1556 1556 1556 1556
1508 1509 1511 1512 1513 1514 1515 1517 1518 1519 1520 1522 1523 1523 1525 1526 1527 1528 1530 1531 1532 1533 1535 1536 1538 1539 1540 1542 1543 1545 1547 1548 1549 1551 1552 1553 1554 1554 1555 1555 1555 1555 1555
1508 1510 1511 1512 1513 1515 1516 1517 1518 1520 1521 1522 1523 1524 1525 1527 1528 1529 1530 1532 1533 1534 1535 1536 1538 1539 1541 1542 1543 1545 1547 1548 1549 1550 1551 1552 1553 1553 1554 1554 1554 1554 1554
1509 1510 1512 1513 1514 1516 1517 1518 1519 1520 1521 1522 1524 1525 1526 1527 1529 1530 1531 1532 1533 1535 1536 1537 1538 1539 1540 1542 1543 1545 1546 1547 1548 1549 1549 1551 1551 1552 1552 1553 1553 1553 1552
1510 1512 1513 1514 1515 1517 1518 1519 1520 1521 1523 1524 1525 1526 1527 1528 1529 1530 1531 1532 1533 1534 1536 1537 1538 1539 1540 1541 1542 1543 1544 1545 1546 1547 1547 1549 1550 1550 1551 1551 1551 1551 1550
1512 1513 1514 1515 1517 1518 1519 1521 1522 1523 1524 1525 1526 1527 1528 1529 1529 1530 1532 1533 1534 1534 1535 1536 1537 1538 1539 1540 1541 1542 1542 1543 1544 1545 1546 1547 1548 1548 1548 1549 1549 1548 1548